Regional Weather Roundup
Issued by NWS State College, PA

Home | Current Version | Previous Version | Text Only | Print | Product List | Glossary Off
Versions: 1 2 3 4 5 6 7 8 9 10 11 12 13 14 15 16 17 18 19 20 21 22 23 24 25 26 27 28 29 30 31 32 33 34 35 36 37 38 39 40 41 42 43 44 45 46 47 48 49 50

283
ASUS41 KCTP 280510
RWRCTP

REGIONAL WEATHER ROUNDUP
NATIONAL WEATHER SERVICE STATE COLLEGE PA
100 AM EDT TUE MAR 28 2017

Note: "fair" indicates few or no clouds below 12,000 feet with no
significant weather and/or obstructions to visibility.

* = STATION THAT DOES NOT REPORT PRECIPITATION /E.G. RAIN...SNOW...ETC/
    THUNDER OR FOG.

PAZ002>004-007>009-013>016-020>023-029>032-280600-
WESTERN PENNSYLVANIA

CITY           SKY/WX    TMP DP  RH WIND       PRES   REMARKS
ERIE           MOCLDY    49  46  90 S3        29.90F
MEADVILLE      CLOUDY    49  46  90 NE7       29.90F
FRANKLIN*      CLOUDY    48  43  81 CALM      29.91F
NEW CASTLE     MOCLDY    52  48  86 NE5       29.88F
BEAVER COUNTY  NOT AVBL
BUTLER*        CLOUDY    52  46  82 E6        29.89F
PITTSBURGH INT CLOUDY    57  50  77 CALM      29.87F
PITTSBURGH     CLOUDY    61  47  59 SE3       29.87F
INDIANA*       CLOUDY    52  48  87 CALM      29.92F
LATROBE        CLOUDY    55  54  94 CALM      29.89F
WASHINGTON CO* CLOUDY    52  48  87 CALM      29.90F
$$

PAZ004>006-010>012-017>019-024>028-033>037-041-042-045-046-049>053-280600-
CENTRAL PENNSYLVANIA

CITY           SKY/WX    TMP DP  RH WIND       PRES   REMARKS
BRADFORD       FOG       42  42 100 CALM      29.91F VSB 1/2
DUBOIS         CLOUDY    53  44  71 E3        29.89F
CLEARFIELD       N/A    N/A N/A N/A MISG      29.90F
JOHNSTOWN      CLOUDY    58  49  72 SW3       29.91F
ALTOONA        CLOUDY    57  50  77 CALM      29.90F
STATE COLLEGE  CLOUDY    52  48  86 CALM      29.91F
WILLIAMSPORT   CLOUDY    47  46  97 CALM      29.93S
SELINSGROVE    CLOUDY    46  45  96 CALM      29.93F FOG
FT INDIANTOWN  CLOUDY    49  49 100 CALM      29.94F
CAPITAL CITY   CLOUDY    53  48  83 SE6       29.92F HAZE
HARRISBURG     CLOUDY    52  50  93 CALM      29.92F FOG
YORK           CLOUDY    51  51 100 CALM      29.91F FOG
$$

PAZ038>040-043-044-047-048-054-055-060>062-067>071-280600-
EASTERN PENNSYLVANIA

CITY           SKY/WX    TMP DP  RH WIND       PRES   REMARKS
SCRANTON       CLOUDY    49  46  90 E3        29.94F
MOUNT POCONO   LGT RAIN  41  41 100 CALM      29.94F FOG
ALLENTOWN      PTCLDY    47  44  90 E5        29.96F FOG
QUAKERTOWN*    PTCLDY    48  48 100 CALM      29.97S
READING        CLOUDY    49  49 100 CALM      29.94F FOG
LANCASTER      CLOUDY    53  52  96 E6        29.93S FOG
COATESVILLE    CLOUDY    54  52  94 E7        29.95F FOG
POTTSTOWN      PTCLDY    49  48  97 NE5       29.96F FOG
BLUE BELL      MOCLDY    48  48 100 E7        29.94F
DOYLESTOWN     MOCLDY    47  47 100 CALM      29.96S FOG
WILLOW GROVE   NOT AVBL
NORTH PHILA    PTCLDY    51  49  92 NE8       29.97F FOG
PHILADELPHIA   CLOUDY    52  50  93 NE5       29.95F FOG
$$




USA.gov is the U.S. government's official web portal to all federal, state and local government web resources and services.